Hourly Data Report for October 03, 2017

All times are specified in Local Standard Time (LST). Add 1 hour to adjust for Daylight Saving Time where and when it is observed.

VERNON AUTO
BRITISH COLUMBIA

50°13'23.900" N
119°11'36.700" W
482.00 m
1128582
71115
WJV

Download Data

Hourly Data (October 2017)
Hourly Data Report for October 3, 2017
Temp Definition
°C
Dew Point Temp Definition
°C
Rel Hum Definition
%
Wind Dir Definition
10's deg

Wind Spd Definition
km/h
Visibility Definition
km
Stn Press Definition
kPa
Hmdx Definition


Wind Chill Definition


Weather Definition


TIME
00:00 3.2 1.8 91 10 7   96.98     LegendNANA
01:00 2.8 1.4 91 10 7   97.05     LegendNANA
02:00 1.7 0.8 94 10 11   97.07     LegendNANA
03:00 1.5 0.6 94 10 14   97.11     LegendNANA
04:00 1.2 0.6 96 10 12   97.14     LegendNANA
05:00 0.9 0.2 95 10 15   97.12     LegendNANA
06:00 0.8 0.0 94 10 13   97.17     LegendNANA
07:00 1.3 0.4 94 10 15   97.22     LegendNANA
08:00 4.0 1.7 85 10 5   97.25     LegendNANA
09:00 6.1 2.3 77 10 6   97.25     LegendNANA
10:00 8.8 1.8 62 15 3   97.21     LegendNANA
11:00 11.1 1.0 50 23 5   97.18     LegendNANA
12:00 12.5 -0.3 41 22 4   97.12     LegendNANA
13:00 13.8 -1.0 36 19 5   97.02     LegendNANA
14:00 15.0 -0.6 34 25 5   96.95     LegendNANA
15:00 15.8 -0.4 33 22 6   96.88     LegendNANA
16:00 14.9 -1.0 33 19 5   96.84     LegendNANA
17:00 11.3 0.0 46 13 4   96.83     LegendNANA
18:00 8.5 -0.2 54 9 4   96.86     LegendNANA
19:00 6.9 0.2 62 9 5   96.88     LegendNANA
20:00 6.1 0.0 65 10 4   96.90     LegendNANA
21:00 5.6 -0.3 66 11 13   96.92     LegendNANA
22:00 4.8 -0.4 69 11 13   96.93     LegendNANA
23:00 4.4 -0.5 70 12 11   96.94     LegendNANA

Notes on Data Quality.

Legend

  • E = Estimated
  • M = Missing
  • NA = Not Available
  • ‡ = Partner data that is not subject to review by the National Climate Archives
Date modified: